Lawrenceville, IL

7:24 PM CDT on April 29, 2017 (GMT -0500)
Lawrenceville-Vincennes International

Weather History for KLWV - December, 2012

Change the Weather History Date:

Wednesday, December 12, 2012

  Actual Average Record
Temperature  
Mean Temperature 35 °F 35 °F  
Max Temperature 47 °F 43 °F 70 °F (2015)
Min Temperature 22 °F 28 °F -4 °F (2013)
Degree Days  
Heating Degree Days 30 30  
Month to date heating degree days 213 331  
Since 1 July heating degree days 1260 1189  
Cooling Degree Days 0 0  
Month to date cooling degree days 1 0  
Year to date cooling degree days 1708 1387  
Moisture  
Dew Point 24 °F    
Average Humidity 67    
Maximum Humidity 88    
Minimum Humidity 45    
Precipitation  
Precipitation 0.00 in 0.10 in 0.59 in (1983)
Month to date precipitation 0.41 1.39  
Year to date precipitation 28.57 41.88  
Sea Level Pressure  
Sea Level Pressure 30.36 in    
Wind  
Wind Speed 4 mph (SSE)    
Max Wind Speed 9 mph    
Max Gust Speed 12 mph    
Visibility 8 miles    
Events      
T = Trace of Precipitation, MM = Missing Value Source: NWS Daily Summary

Daily Weather History Graph

Daily Weather History Graph

Search for Another Location

Airport or City:

Trip Planner

Search our weather history database for the weather conditions in past years. The results will help you decide how hot, cold, wet, or windy it might be!

Date:

Astronomy

Dec. 12, 2012 Rise Set
Actual Time 6:59 AM CST 4:29 PM CST
Civil Twilight 6:29 AM CST 4:59 PM CST
Nautical Twilight 5:56 AM CST 5:32 PM CST
Astronomical Twilight 5:24 AM CST 6:04 PM CST
Moon 6:03 AM CST (12/12) 4:05 PM CST (12/12)
Length of Visible Light 10h 29m
Length of Day
9h 29m
Waning Crescent, 1% of the Moon is Illuminated
Dec 12
Waning Crescent
Dec 13
New
Dec 19
First Quarter
Dec 28
Full
Jan 4
Last Quarter

Hourly Weather History & Observations

Time (CST) Temp. Windchill Dew Point Humidity Pressure Visibility Wind Dir Wind Speed Gust Speed Precip Events Conditions
12:53 AM 25.0 °F 20.7 °F 21.0 °F 85% 30.29 in 7.0 mi South 3.5 mph - N/A   Clear
1:53 AM 26.1 °F 20.5 °F 21.0 °F 81% 30.30 in 7.0 mi SSE 4.6 mph - N/A   Clear
2:53 AM 25.0 °F 20.7 °F 19.9 °F 81% 30.30 in 7.0 mi South 3.5 mph - N/A   Clear
3:53 AM 24.1 °F 17.0 °F 19.9 °F 84% 30.31 in 8.0 mi SSE 5.8 mph - N/A   Clear
4:53 AM 24.1 °F 19.7 °F 19.9 °F 84% 30.33 in 7.0 mi SSE 3.5 mph - N/A   Clear
5:53 AM 24.1 °F 19.7 °F 19.9 °F 84% 30.35 in 7.0 mi ESE 3.5 mph - N/A   Clear
6:53 AM 21.9 °F - 18.0 °F 85% 30.36 in 6.0 mi Calm Calm - N/A   Clear
7:53 AM 27.0 °F 23.0 °F 23.0 °F 85% 30.37 in 4.0 mi East 3.5 mph - N/A   Clear
8:53 AM 30.9 °F - 26.1 °F 82% 30.39 in 5.0 mi Calm Calm - N/A   Haze
9:53 AM 36.0 °F 32.1 °F 28.9 °F 76% 30.40 in 6.0 mi South 4.6 mph - N/A   Haze
10:53 AM 39.9 °F 35.8 °F 28.0 °F 63% 30.40 in 9.0 mi South 5.8 mph - N/A   Clear
11:53 AM 44.1 °F 39.0 °F 28.0 °F 53% 30.37 in 10.0 mi SSE 9.2 mph - N/A   Clear
12:53 PM 45.0 °F 40.6 °F 27.0 °F 49% 30.36 in 10.0 mi South 8.1 mph - N/A   Clear
1:53 PM 46.0 °F 42.5 °F 27.0 °F 47% 30.35 in 10.0 mi South 6.9 mph - N/A   Clear
2:53 PM 46.0 °F 43.1 °F 26.1 °F 46% 30.35 in 10.0 mi SSW 5.8 mph - N/A   Clear
3:53 PM 43.0 °F 38.8 °F 28.0 °F 56% 30.35 in 10.0 mi South 6.9 mph - N/A   Clear
4:53 PM 37.9 °F 35.5 °F 27.0 °F 65% 30.35 in 10.0 mi South 3.5 mph - N/A   Clear
5:53 PM 32.0 °F 28.7 °F 26.1 °F 79% 30.37 in 10.0 mi South 3.5 mph - N/A   Clear
6:53 PM 33.1 °F 30.0 °F 26.1 °F 75% 30.38 in 10.0 mi ESE 3.5 mph - N/A   Clear
7:53 PM 30.0 °F 24.1 °F 25.0 °F 82% 30.38 in 9.0 mi SSE 5.8 mph - N/A   Clear
8:53 PM 30.9 °F 27.5 °F 24.1 °F 76% 30.38 in 9.0 mi South 3.5 mph - N/A   Clear
9:53 PM 30.0 °F - 24.1 °F 79% 30.38 in 9.0 mi Calm Calm - N/A   Clear
10:53 PM 28.0 °F 24.2 °F 24.1 °F 85% 30.38 in 8.0 mi East 3.5 mph - N/A   Clear
11:53 PM 27.0 °F - 23.0 °F 85% 30.38 in 8.0 mi Calm Calm - N/A   Clear